Погода в Жлобине

Погода в Жлобине : погода сейчас, прогноз погоды и архив. Всё, что Вы хотите узнать о погоде в Жлобине!

Хотите узнать прогноз погоды в Жлобине? Тогда Вам сюда: Погода в Жлобине

Поиск расширенной информации на нашем сайте:

Другие новости

Новости СМИ2

Главная страница сайта

Новости сайта

03.07.2017

Напоминаем, что на нашем специализированном сайте Метеоцентр.Азия вы можете получить высокодетализированные автоматические прогнозы погоды по пунктам России, СНГ и мира в авиационном формате (включающие направление и скорость ветра, видимость, явления погоды, количество и форму облачности, нижнюю и верхнюю границу облачности).


Погода в Жлобине - сегодня

Время (UTC), дата Ветер
(°,м/с) 
Видим.   Явления Облачность Т
(°С)
Тd
(°С)
f(%) Тe
(°С)
Pmin
(гПа)
dP
(гПа)
Po
(мм)
O2
(г/м3)
Тmin Tmax R s Состояние
почвы
15 18.10.17 260 (З) 20000 м    8/0 верхняя 
[Cs]
+18.2 +11.7 66 +23  1012.4  -0.6  747  280           
18 18.10.17 320 (СЗ) 15000 м    8/0 верхняя 
[Cs]
+15.3 +11.8 80 +20  1013.3  0.7  747  283    +20.9       
21 18.10.17 300 (СЗ) 12000 м    ясно 
+10.8 +9.2 90 +12  1014.7  1.1  748  288           
00 19.10.17 тихо ()   9000 м  дымка  ясно 
+9.2 +8.4 95 +9  1015.5  0.7  749  290           
03 19.10.17 тихо ()   8000 м  дымка  ясно 
+8 +7.6 97 +8  1016.1  0.5  749  292           
06 19.10.17 300 (СЗ) 8000 м  дымка  10/5 600 м средняя 
[Sc|Ac As]
+8.3 +7.7 96 +9  1017.2  1.2  750  292  +7.6         
09 19.10.17 340 (С) 28000 м    10/8 600 м средняя 
[Sc|Ac As]
+11.5 +9.2 86 +13  1018.1  751  289           
12 19.10.17 340 (С) 30000 м    8/3 600 м кучево-дожд., средняя 
[Cb cap|Ac trans]
+12.6 +9 79 +14  1018.2  0.2  751  288           
15 19.10.17 тихо ()   30000 м    8/3 600 м средняя, верхняя 
[Sc|Ac trans|Ci sp]
+11 +9.2 89 +11  1018.4  0.1  751  289           
18 19.10.17 070 (В) 30000 м    6/0 средняя, верхняя 
[Ac lent|Ci fib]
+7.4 +4.5 82 +8  1020  1.2  752  294    +12.8       
21 19.10.17 тихо ()   25000 м    4/0 верхняя 
[Ci fib]
+4.9 +3.5 91 +5  1021.4  1.3  753  297           
00 20.10.17 тихо ()   20000 м    ясно 
+1.8 +1.3 96 +2  1022.1  0.5  753  301           
03 20.10.17 тихо ()   15000 м    ясно 
+0.2 -0.1 98 1022.5  0.3  753  303           
06 20.10.17 тихо ()   20000 м    3/0 верхняя 
[Ci fib]
+1.6 +0.5 92 +2  1023.6  1.2  754  302  -0.3         
09 20.10.17 090 (В) 25000 м    6/3 1000 м верхняя 
[Cu hum|Ci fib]
+9.2 +2.1 61 +9  1023.6  0.5  755  294           
12 20.10.17 090 (В) 30000 м    3/3 1000 м 
[Cu hum]
+10.4 +0.6 51 +11  1022.4  -1.1  754  293           
15 20.10.17 080 (В) 30000 м    8/0 верхняя 
[Ci fib]
+7.6 +2.9 72 +9  1022.5  -0.1  754  295           
18 20.10.17 тихо ()   15000 м    8/0 верхняя 
[Ci sp]
+3.7 +1.9 88 +4  1023.3  0.5  754  300    +10.5       
21 20.10.17 тихо ()   10 км    ясно 
+2.1 +0.3 88 +2  1023.1  -0.3  754  301           
00 21.10.17 тихо ()   15000 м    8/0 средняя 
[Ac trans]
+3.9 +2.1 88 +4  1022.4  -0.6  754  299           
03 21.10.17 тихо ()   17000 м    8/0 средняя 
[Ac trans]
+4.6 +2.4 86 +5  1021.4  -0.9  753  298           
06 21.10.17 тихо ()   18000 м    10/0 средняя 
[Ac As]
+4.5 +2.8 89 +5  1020.8  -0.6  752  298  +2         
09 21.10.17 090 (В) 25000 м    10/0 средняя 
[As op]
+5.8 +2.1 77 +7  1020.4  -0.4  752  296           
12 21.10.17 090 (В) 15000 м  слаб. дождь  10/0 средняя 
[As op]
+5.8 +3.7 86 +6  1019  -1.3  751  296      0.3     
15 21.10.17 090 (В) 10 км  слаб. дождь  10/9 300 м средняя 
[Frnb|As op]
+4.5 +3.8 95 +4  1018.1  -0.9  750  297         
Время (UTC), дата Ветер
(°,м/с) 
Видим.   Явления Облачность Т
(°С)
Тd
(°С)
f(%) Тe
(°С)
Pmin
(гПа)
dP
(гПа)
Po
(мм)
O2
(г/м3)
Тmin Tmax R s Состояние
почвы

Для получения пояснительной информации подведите курсор к названию столбца.

ПОГОДА в Жлобине - архив

Всё, что Вы хотите узнать о погоде в Жлобине - удобно и подробно!

Выберите нужную дату (начиная с 1 января 2015* года) и нажмите кнопку "Найти".
Будут отображены архивные сводки погоды по пункту Жлобин, начиная с указанной даты.


Отображать данные в формате CSV (для использования в таблицах Excel)


Внимание! Наш архив погоды предназначен исключительно для личного некоммерческого использования в познавательных целях. Если Вам необходимы официальные справки о состоянии погоды (для производственных, юридических, коммерческих и т.п. целей), обращайтесь в органы Росгидромета.

*Примечание: данная дата относится к архиву по метеостанциям СССР (Россия, СНГ, Балтия).
Архив по метеостанциям Зарубежной Европы и Азии (кроме Китая) хранится 10 дней, по другим регионам земного шара (Китай, Африка, Америка, Австралия, Океания) - 1 день.

Жлобин - район местоположения метеостанции


Название, широта, долгота, высота метеостанции:
Жлобин 52.9°ш. 30°д. 142 м над ур. моря [Беларусь]

Дополнительная информация

В oтличие oт бoльшинства пoгoдных сайтoв мы публикуем пoдрoбную метеoинфoрмацию в детальнoм прoфессиoнальнoм фoрмате.

Характеристики температуры и влажнoсти вoздуха измеряются на высoте 2 м в тени вдали oт зданий и деревьев.
Скoрoсть ветра измеряется на высoте 10 м (на урoвне рoста челoвека скoрoсть ветра ниже в 1.5-2 раза). Если метеoстанция нахoдится в гoрoде или в лесу, тo скoрoсть ветра занижена на 2-4 м/с пo сравнению с oткрытым местoм. Скoрoсть ветра над акватoриями крупных рек и oзёр, а также на вершинах хoлмoв на 2-5 м/с выше, чем в oбычных услoвиях.
Атмoсфернoе давление в разных тoчках местнoсти мoжет значительнo oтличаться oт давления на метеoстанции, в зависимoсти oт услoвий рельефа (при пoдъёме на 10 м давление пoнижается примернo на 1 мм рт.ст.).